Lid_Strength_Index
4 4 3 3 3 3 2 2 1 1 1 1 0 -0 -0 -0 -1 0 0 -0 0 0 -0 -0 -1 -1 -2 -2 -1 -1 -2 -1 -1
5 5 3 3 3 2 2 1 2 1 1 0 0 -0 -0 -0 -1 -0 -0 -1 -1 -0 -1 -1 -1 -1 -1 -2 -1 -1 -2 -0 -1
5 5 4 3 3 2 2 1 1 0 0 1 0 -0 -0 -0 -0 -1 -1 -1 -0 -1 -1 -1 -1 -1 -1 -1 -1 -1 -2 -1 -1
5 5 4 3 3 2 2 1 1 1 1 1 0 0 -0 -0 -0 -1 -1 -0 -1 -1 -1 -1 -1 -1 -1 -1 -1 -1 -1 -1 -1
5 5 4 3 3 2 2 3 1 1 1 1 0 0 -0 -0 -0 -1 -0 -0 -1 -1 -1 -1 -1 -1 -1 -1 -1 -1 -1 -0 -1
5 4 4 3 3 3 2 2 1 1 1 1 0 0 0 0 0 -0 -0 -0 -1 -1 -1 -1 -1 -1 -1 -1 -1 -1 -1 -1 -0
5 5 5 3 3 3 2 2 2 1 1 0 0 1 1 1 0 -0 -0 -1 -1 -1 -1 -1 -1 -1 -1 -1 -1 -1 -1 -1 -1
5 5 5 5 4 3 2 2 2 1 1 1 0 0 0 0 -0 -0 -0 -0 -0 -1 -1 -0 -1 -1 -1 -1 -1 -0 -1 -1 -1
6 6 5 4 4 3 3 2 2 2 1 1 0 1 1 0 0 0 0 -0 -0 -0 -0 -1 -1 -1 -0 -0 -0 4 3 0 -0
6 5 5 4 4 3 3 3 3 3 2 1 1 1 1 1 1 1 0 0 0 0 0 -0 -0 -0 -1 -0 0 6 5 3 -0
5 5 4 4 4 3 3 2 3 3 3 2 3 4 4 2 1 1 1 0 1 0 0 0 0 0 -0 2 5 8 7 5 -0
4 4 4 3 3 4 3 2 2 2 2 2 2 4 4 4 3 2 2 1 1 1 0 1 1 0 2 3 4 8 7 4 -1
4 3 3 5 6 6 7 6 2 3 3 1 2 4 4 3 4 5 5 3 3 1 0 1 1 2 2 5 4 9 8 6 -0
3 3 4 5 6 7 8 7 7 4 3 3 3 3 3 4 4 4 4 3 3 2 1 1 2 3 4 4 3 5 8 7 1
4 4 5 5 6 7 8 7 8 8 7 5 4 4 5 5 4 5 3 2 2 2 2 1 2 2 4 4 6 7 8 8 7
5 5 6 5 6 7 7 7 7 8 7 6 5 5 5 5 4 5 4 5 3 2 2 2 1 1 2 3 2 3 7 7 6
6 6 6 6 6 8 7 7 7 6 6 5 5 6 5 5 5 5 5 5 5 5 5 4 3 2 2 2 3 5 6 5 3
5 5 6 6 6 7 7 5 7 6 5 5 5 5 6 5 5 5 6 6 7 8 9 9 5 5 6 6 7 8 11 10 7
4 4 4 5 6 6 6 6 6 5 5 5 5 6 5 5 6 5 6 6 8 11 11 12 13 12 9 10 11 11 12 12 12
3 3 3 5 5 5 5 5 5 4 4 4 4 5 5 5 6 5 5 5 6 9 10 11 12 12 12 12 12 12 12 13 13